• In Uzbekistan
  • List of Countries
  • For 7 days
  • Water Temperature
  • Satellite Maps
  • Weather Map
  • Weather Widgets
  • user-avatar
    Login

    Hourly Weather Sidi Bu-l-Abbas

    Today, 20 November, Monday

    Time Temperature Precipitation Wind Pressure Humidity
    00:00 +13°C° 0 mm 1 mps 723 mmHg 39%
    01:00 +13°C° 0 mm 1 mps 723 mmHg 38%
    02:00 +13°C° 0 mm 1 mps 723 mmHg 38%
    03:00 +12°C° 0 mm 1 mps 723 mmHg 38%
    04:00 +12°C° 0 mm 1 mps 723 mmHg 38%
    05:00 +12°C° 0 mm 1 mps 723 mmHg 38%
    06:00 +12°C° 0 mm 1 mps 723 mmHg 37%
    07:00 +14°C° 0 mm 1 mps 724 mmHg 33%
    08:00 +16°C° 0 mm 1 mps 724 mmHg 29%
    09:00 +19°C° 0 mm 1 mps 725 mmHg 25%
    10:00 +20°C° 0 mm 1 mps 725 mmHg 23%
    11:00 +21°C° 0 mm 1 mps 725 mmHg 21%
    12:00 +22°C° 0 mm 1 mps 725 mmHg 19%
    13:00 +22°C° 0 mm 1 mps 725 mmHg 19%
    14:00 +23°C° 0 mm 1 mps 724 mmHg 18%
    15:00 +23°C° 0 mm 2 mps 724 mmHg 18%
    16:00 +20°C° 0 mm 2 mps 724 mmHg 22%
    17:00 +18°C° 0 mm 2 mps 724 mmHg 26%
    18:00 +17°C° 0 mm 2 mps 724 mmHg 30%
    19:00 +16°C° 0 mm 1 mps 724 mmHg 32%
    20:00 +15°C° 0 mm 1 mps 724 mmHg 33%
    21:00 +14°C° 0 mm 1 mps 724 mmHg 35%
    22:00 +14°C° 0 mm 1 mps 724 mmHg 34%
    23:00 +14°C° 0 mm 1 mps 724 mmHg 33%

    Tomorrow, 21 November, Tuesday

    Time Temperature Precipitation Wind Pressure Humidity
    00:00 +13°C° 0 mm 1 mps 724 mmHg 32%
    01:00 +13°C° 0 mm 1 mps 724 mmHg 32%
    02:00 +13°C° 0 mm 1 mps 723 mmHg 32%
    03:00 +12°C° 0 mm 1 mps 723 mmHg 31%
    04:00 +12°C° 0 mm 1 mps 723 mmHg 31%
    05:00 +12°C° 0 mm 1 mps 723 mmHg 31%
    06:00 +12°C° 0 mm 1 mps 723 mmHg 30%
    07:00 +14°C° 0 mm 2 mps 723 mmHg 27%
    08:00 +16°C° 0 mm 2 mps 724 mmHg 24%
    09:00 +17°C° 0 mm 2 mps 724 mmHg 21%
    10:00 +20°C° 0 mm 1 mps 724 mmHg 19%
    11:00 +21°C° 0 mm 1 mps 724 mmHg 18%
    12:00 +22°C° 0 mm 1 mps 724 mmHg 16%
    13:00 +22°C° 0 mm 1 mps 723 mmHg 16%
    14:00 +22°C° 0 mm 1 mps 723 mmHg 16%
    15:00 +21°C° 0 mm 2 mps 723 mmHg 16%
    16:00 +21°C° 0 mm 1 mps 723 mmHg 20%
    17:00 +19°C° 0 mm 1 mps 722 mmHg 24%
    18:00 +16°C° 0 mm 1 mps 722 mmHg 28%
    19:00 +16°C° 0 mm 1 mps 722 mmHg 29%
    20:00 +15°C° 0 mm 1 mps 722 mmHg 30%
    21:00 +13°C° 0 mm 0 mps 722 mmHg 31%
    22:00 +14°C° 0 mm 1 mps 722 mmHg 31%
    23:00 +13°C° 0 mm 1 mps 722 mmHg 31%

    Day after tomorrow, 22 November, Wednesday

    Time Temperature Precipitation Wind Pressure Humidity
    00:00 +13°C° 0 mm 1 mps 722 mmHg 30%
    01:00 +13°C° 0 mm 1 mps 722 mmHg 31%
    02:00 +13°C° 0 mm 1 mps 721 mmHg 31%
    03:00 +12°C° 0 mm 1 mps 721 mmHg 31%
    04:00 +12°C° 0 mm 1 mps 721 mmHg 31%
    05:00 +12°C° 0 mm 1 mps 721 mmHg 31%
    06:00 +12°C° 0 mm 1 mps 721 mmHg 31%
    07:00 +14°C° 0 mm 1 mps 721 mmHg 28%
    08:00 +15°C° 0 mm 1 mps 722 mmHg 25%
    09:00 +18°C° 0 mm 1 mps 722 mmHg 22%
    10:00 +19°C° 0 mm 1 mps 722 mmHg 20%
    11:00 +20°C° 0 mm 1 mps 722 mmHg 19%
    12:00 +21°C° 0 mm 2 mps 722 mmHg 17%
    13:00 +21°C° 0 mm 2 mps 722 mmHg 17%
    14:00 +21°C° 0 mm 2 mps 721 mmHg 18%
    15:00 +21°C° 0 mm 2 mps 721 mmHg 18%
    16:00 +19°C° 0 mm 2 mps 721 mmHg 23%
    17:00 +18°C° 0 mm 1 mps 721 mmHg 27%
    18:00 +15°C° 0 mm 1 mps 721 mmHg 32%
    19:00 +15°C° 0 mm 1 mps 721 mmHg 32%
    20:00 +14°C° 0 mm 1 mps 722 mmHg 33%
    21:00 +14°C° 0 mm 1 mps 722 mmHg 34%
    22:00 +13°C° 0 mm 1 mps 722 mmHg 34%
    23:00 +13°C° 0 mm 1 mps 722 mmHg 33%

    23 November, Thursday

    Time Temperature Precipitation Wind Pressure Humidity
    00:00 +13°C° 0 mm 1 mps 722 mmHg 33%
    01:00 +12°C° 0 mm 1 mps 722 mmHg 34%
    02:00 +11°C° 0 mm 0 mps 721 mmHg 34%
    03:00 +10°C° 0 mm 0 mps 721 mmHg 35%
    04:00 +10°C° 0 mm 0 mps 721 mmHg 35%
    05:00 +10°C° 0 mm 0 mps 722 mmHg 35%
    06:00 +9°C° 0 mm 0 mps 722 mmHg 36%
    07:00 +13°C° 0 mm 1 mps 723 mmHg 31%
    08:00 +15°C° 0 mm 1 mps 723 mmHg 27%
    09:00 +19°C° 0 mm 1 mps 724 mmHg 22%
    10:00 +20°C° 0 mm 1 mps 724 mmHg 20%
    11:00 +18°C° 0 mm 0 mps 724 mmHg 18%
    12:00 +19°C° 0 mm 0 mps 724 mmHg 16%
    13:00 +22°C° 0 mm 1 mps 724 mmHg 16%
    14:00 +22°C° 0 mm 1 mps 724 mmHg 16%
    15:00 +21°C° 0 mm 2 mps 724 mmHg 16%
    16:00 +19°C° 0 mm 2 mps 723 mmHg 19%
    17:00 +18°C° 0 mm 2 mps 723 mmHg 23%
    18:00 +16°C° 0 mm 2 mps 723 mmHg 26%
    19:00 +15°C° 0 mm 2 mps 724 mmHg 27%
    20:00 +15°C° 0 mm 1 mps 724 mmHg 27%
    21:00 +14°C° 0 mm 1 mps 724 mmHg 28%
    22:00 +14°C° 0 mm 1 mps 724 mmHg 28%
    23:00 +14°C° 0 mm 1 mps 724 mmHg 27%

    24 November, Friday

    Time Temperature Precipitation Wind Pressure Humidity
    00:00 +13°C° 0 mm 2 mps 723 mmHg 27%
    01:00 +13°C° 0 mm 2 mps 723 mmHg 26%
    02:00 +13°C° 0 mm 2 mps 723 mmHg 26%
    03:00 +13°C° 0 mm 2 mps 723 mmHg 26%
    04:00 +13°C° 0 mm 2 mps 723 mmHg 26%
    05:00 +13°C° 0 mm 2 mps 723 mmHg 26%
    06:00 +12°C° 0 mm 2 mps 723 mmHg 26%
    07:00 +14°C° 0 mm 2 mps 723 mmHg 24%
    08:00 +16°C° 0 mm 3 mps 724 mmHg 22%
    09:00 +17°C° 0 mm 3 mps 724 mmHg 21%
    10:00 +19°C° 0 mm 2 mps 724 mmHg 19%
    11:00 +20°C° 0 mm 2 mps 724 mmHg 17%
    12:00 +23°C° 0 mm 2 mps 724 mmHg 15%
    13:00 +23°C° 0 mm 2 mps 723 mmHg 15%
    14:00 +23°C° 0 mm 2 mps 723 mmHg 14%
    15:00 +24°C° 0 mm 2 mps 722 mmHg 14%
    16:00 +21°C° 0 mm 2 mps 722 mmHg 18%
    17:00 +20°C° 0 mm 1 mps 722 mmHg 21%
    18:00 +18°C° 0 mm 1 mps 722 mmHg 24%
    19:00 +16°C° 0 mm 1 mps 722 mmHg 25%
    20:00 +16°C° 0 mm 1 mps 723 mmHg 25%
    21:00 +16°C° 0 mm 1 mps 723 mmHg 25%
    22:00 +15°C° 0 mm 1 mps 723 mmHg 25%
    23:00 +15°C° 0 mm 2 mps 723 mmHg 25%

    25 November, Saturday

    Time Temperature Precipitation Wind Pressure Humidity
    00:00 +15°C° 0 mm 2 mps 722 mmHg 25%
    01:00 +14°C° 0 mm 2 mps 722 mmHg 25%
    02:00 +14°C° 0 mm 2 mps 722 mmHg 26%
    03:00 +13°C° 0 mm 3 mps 722 mmHg 26%
    04:00 +13°C° 0 mm 3 mps 722 mmHg 26%
    05:00 +12°C° 0 mm 3 mps 722 mmHg 26%
    06:00 +12°C° 0 mm 3 mps 722 mmHg 26%
    07:00 +13°C° 0 mm 3 mps 722 mmHg 25%
    08:00 +16°C° 0 mm 3 mps 722 mmHg 23%
    09:00 +17°C° 0 mm 4 mps 723 mmHg 21%
    10:00 +19°C° 0 mm 4 mps 722 mmHg 19%
    11:00 +20°C° 0 mm 4 mps 722 mmHg 17%
    12:00 +22°C° 0 mm 4 mps 722 mmHg 15%
    13:00 +22°C° 0 mm 4 mps 722 mmHg 15%
    14:00 +22°C° 0 mm 3 mps 721 mmHg 15%
    15:00 +22°C° 0 mm 3 mps 721 mmHg 16%
    16:00 +21°C° 0 mm 3 mps 721 mmHg 18%
    17:00 +19°C° 0 mm 2 mps 721 mmHg 21%
    18:00 +19°C° 0 mm 1 mps 722 mmHg 24%
    19:00 +18°C° 0 mm 1 mps 722 mmHg 26%
    20:00 +17°C° 0 mm 2 mps 722 mmHg 27%
    21:00 +17°C° 0 mm 2 mps 723 mmHg 28%
    22:00 +17°C° 0 mm 2 mps 723 mmHg 31%
    23:00 +16°C° 0 mm 2 mps 723 mmHg 34%
    Show more